Regional Weather Roundup
Issued by NWS

Home | Current Version | Previous Version | Graphics & Text | Print | Product List | Glossary On
Versions: 1 2 3 4 5 6 7 8 9 10 11 12 13 14 15 16 17 18 19 20 21 22 23 24 25 26 27 28 29 30 31 32 33 34 35 36 37 38 39 40 41 42 43 44 45 46 47 48 49 50
759
ASUS45 KBOU 241207
RWRCO

WEATHER ROUNDUP FOR COLORADO
NATIONAL WEATHER SERVICE DENVER/BOULDER CO
600 AM MDT SUN SEP 24 2017

NOTE: "FAIR" INDICATES FEW OR NO CLOUDS BELOW 12000 FEET WITH NO
SIGNIFICANT WEATHER AND/OR OBSTRUCTIONS TO VISIBILITY.

COZ001>005-013-030-031-241300-
...NORTHWEST COLORADO...

CITY           SKY/WX    TMP DP  RH WIND       PRES   REMARKS
CRAIG          CLOUDY    39  36  89 CALM      29.88S
HAYDEN         FAIR      36  33  89 E3        29.89F
MEEKER         FAIR      33  32  96 CALM      29.87S
RABBIT EARS PA FAIR      32  32 100 SE8       30.00S WCI  25
STEAMBOAT SPGS FAIR      33  32  98 CALM      29.89S
WALDEN         CLOUDY    32  30  93 SE3       29.97S VSB 1/4
$$

COZ006>008-011-241300-
...WEST CENTRAL VALLEYS...

CITY           SKY/WX    TMP DP  RH WIND       PRES   REMARKS
GRAND JUNCTION FAIR      42  41  96 S5        29.82R
MONTROSE       FAIR      39  36  89 SE9       29.89R
EAGLE          CLOUDY    35  33  92 E3        29.94S
RIFLE          FAIR      39  38  96 CALM      29.85R
DELTA          NOT AVBL
NUCLA          FAIR      43  30  61 SE8       29.94R
$$

COZ017>023-064>068-241300-
...SOUTHWEST COLORADO...

CITY           SKY/WX    TMP DP  RH WIND       PRES   REMARKS
DURANGO        FAIR      34  34 100 E6        29.96R WCI  29
CORTEZ         FAIR      35  35 100 NE5       29.94R WCI  31
PAGOSA SPRINGS FAIR      35  35 100 CALM      30.01R
TELLURIDE      FAIR      39  21  49 E5        29.97S
WOLF CREEK PAS FAIR      25  25 100 S14       30.15S WCI  13
$$

COZ009-010-012-014-032>034-037-058>063-241300-
...CENTRAL COLORADO...

CITY           SKY/WX    TMP DP  RH WIND       PRES   REMARKS
ASPEN          FAIR      33  31  92 S6        29.90F WCI  28
BUENA VISTA    CLOUDY    43  41  93 SE5       29.97S
COPPER MTN     FAIR      34  21  60 MISG      30.07F THUNDER
BERTHOUD PASS  HAZE      27  18  69 S24G30    30.11S THUNDER VSB 1/2
COTTONWOOD PAS CLOUDY    43  41  93 SE9       30.03R THUNDER
GUNNISON       FOG       28  28 100 CALM      29.96S VSB 3/4
KREMMLING      CLOUDY    41  37  87 SE3       29.96F
LEADVILLE      MOCLDY    34  32  92 S5        30.00S WCI  30
MONARCH PASS   FAIR      30  27  86 S22G32    30.18F WCI  17
SALIDA         CLOUDY    46  42  86 CALM      30.03S
SUNLIGHT       FAIR      30  28  93 SE6       30.03S WCI  24
WILKERSON PASS FOG       32  32 100 SW13G24   30.12S THUNDER VSB 1/4
$$

COZ069>075-241300-
...SAN LUIS VALLEY/SANGRE DE CRISTO MOUNTAINS...

CITY           SKY/WX    TMP DP  RH WIND       PRES   REMARKS
ALAMOSA        CLOUDY    43  41  93 SW5       29.98S
DEL NORTE      FAIR      34  32  94 W8        30.00S WCI  27
LA VETA PASS   FAIR      34  32  93 S20       30.19S WCI  22
SAGUACHE       CLOUDY    41  41 100 CALM      30.00S
$$

COZ035-036-038>040-241300-
...NORTHERN COLORADO FRONT RANGE...

CITY           SKY/WX    TMP DP  RH WIND       PRES   REMARKS
DENVER INTL AP CLOUDY    46  43  89 E3        29.96S
DMNS CITY PARK   N/A     46  45  98 E9        29.97S
AURORA         CLOUDY    45  45 100 SE6       29.98S
FRONT RANGE AP CLOUDY    46  45  93 CALM      29.98R
ERIE MUNI ARPT CLOUDY    46  44  93 CALM      30.03R
BOULDER MUN AP CLOUDY    45  45 100 CALM      29.97R
CENTENNIAL     CLOUDY    45  44  97 E5        29.97S
BROOMFIELD     CLOUDY    45  45 100 CALM      29.98R
FORT COLLINS   CLOUDY    46  45  96 S3        29.98R
LONGMONT       CLOUDY    49  46  91 CALM      29.99S FOG
$$

COZ041-046-047-076>085-087-088-241300-
...PIKES PEAK/PALMER DIVIDE AND SOUTHERN FOOTHILLS...

CITY           SKY/WX    TMP DP  RH WIND       PRES   REMARKS
COLO. SPRINGS  LGT RAIN  45  44  97 NW3       29.99S FOG
A. F. ACADEMY  CLOUDY    45  41  87 N5        29.98S
SCHRIEVER AFB  CLOUDY    45  43  93 MISG      29.98S
CHEYENNE MTN   CLOUDY    43  40  87 NW5       29.94S
ELLICOTT       LGT RAIN N/A N/A N/A NE7       29.97R
FALCON         DRIZZLE   42  41  97 N5        30.01R
FORT CARSON    CLOUDY    47  44  87 N6        29.96S
LIMON            N/A    N/A N/A N/A MISG      29.97R
MONUMENT HILL  CLOUDY    39  39 100 E7        30.01S FOG
CANON CITY     CLOUDY    50  46  87 E5        29.96R FOG
WALSENBURG     NOT AVBL
TRINIDAD       CLOUDY    48  48 100 N3        29.96S FOG
$$

COZ042>045-048>051-090-091-241300-
...NORTHEAST COLORADO...

CITY           SKY/WX    TMP DP  RH WIND       PRES   REMARKS
GREELEY ARPT   MOCLDY    46  45  96 CALM      29.98R
AKRON          CLOUDY    44  42  93 N14       29.96R FOG
BURLINGTON     LGT RAIN  50  49  96 NW14      29.93F
WRAY           CLOUDY   N/A N/A N/A N7        29.94S HAZE
YUMA           CLOUDY    45  43  93 NW9       29.96R
STERLING       CLOUDY    45  45 100 N8        29.96S
HOLYOKE        CLOUDY    48  45  87 N13G20    29.94S
FORT MORGAN    CLOUDY    47  45  91 NE13G18   29.97S
$$

COZ086-089-092>099-241300-
...SOUTHEAST COLORADO...

CITY           SKY/WX    TMP DP  RH WIND       PRES   REMARKS
PUEBLO         CLOUDY    50  47  89 NE7       29.95S
LA JUNTA       CLOUDY    52  50  93 N8        29.93R
LAMAR          LGT RAIN  54  53  97 NW9       29.89R
SPRINGFIELD      N/A     56  56 100 CALM      29.90F
$$




USA.gov is the U.S. government's official web portal to all federal, state and local government web resources and services.